Pampa, TX

1:14 PM CDT on March 30, 2017 (GMT -0500)
Perry Lefors

Weather History for KPPA - February, 2014

Change the Weather History Date:

Wednesday, February 5, 2014

  Actual Average Record
Temperature  
Mean Temperature 4 °F -  
Max Temperature 9 °F 45 °F 73 °F (2009)
Min Temperature 0 °F 22 °F -6 °F (1989)
Degree Days  
Heating Degree Days 60    
Moisture  
Dew Point -2 °F    
Average Humidity 78    
Maximum Humidity 83    
Minimum Humidity 72    
Precipitation  
Precipitation 0.00 in - - ()
Sea Level Pressure  
Sea Level Pressure 30.42 in    
Wind  
Wind Speed 17 mph (North)    
Max Wind Speed 23 mph    
Max Gust Speed 31 mph    
Visibility 5 miles    
Events Snow    
Averages and records for this station are not official NWS values.
T = Trace of Precipitation, MM = Missing Value Source: NWS Daily Summary

Daily Weather History Graph

Daily Weather History Graph

Search for Another Location

Airport or City:

Trip Planner

Search our weather history database for the weather conditions in past years. The results will help you decide how hot, cold, wet, or windy it might be!

Date:

Astronomy

Feb. 05, 2014 Rise Set
Actual Time 7:40 AM CST 6:15 PM CST
Civil Twilight 7:13 AM CST 6:42 PM CST
Nautical Twilight 6:43 AM CST 7:12 PM CST
Astronomical Twilight 6:13 AM CST 7:42 PM CST
Moon 11:11 AM CST (2/5) No Moon Set
Length of Visible Light 11h 28m
Length of Day
10h 35m
Waxing Crescent, 39% of the Moon is Illuminated
Feb 5
Waxing Crescent
Feb 6
First Quarter
Feb 14
Full
Feb 22
Last Quarter
Mar 1
New

Hourly Weather History & Observations

Time (CST) Temp. Windchill Dew Point Humidity Pressure Visibility Wind Dir Wind Speed Gust Speed Precip Events Conditions
12:15 AM 9.5 °F -7.8 °F 5.4 °F 83% 30.24 in 7.0 mi North 16.1 mph 23.0 mph N/A   Clear
12:35 AM 9.0 °F -9.5 °F 4.6 °F 83% 30.23 in 10.0 mi North 18.4 mph 26.5 mph N/A   Clear
12:55 AM 8.1 °F -11.7 °F 3.9 °F 83% 30.25 in 7.0 mi North 20.7 mph - N/A   Clear
1:15 AM 7.7 °F -10.1 °F 3.6 °F 83% 30.26 in 5.0 mi North 16.1 mph 26.5 mph N/A Snow Light Snow
1:35 AM 7.0 °F -12.6 °F 2.8 °F 83% 30.27 in 7.0 mi North 19.6 mph 27.6 mph N/A   Clear
1:55 AM 6.3 °F -12.0 °F 1.4 °F 80% 30.27 in 7.0 mi North 16.1 mph 27.6 mph N/A   Clear
2:15 AM 5.9 °F -13.5 °F 1.4 °F 82% 30.28 in 5.0 mi North 18.4 mph 31.1 mph N/A   Haze
2:35 AM 5.2 °F -16.4 °F 0.7 °F 82% 30.29 in 5.0 mi North 23.0 mph 29.9 mph N/A   Clear
2:55 AM 4.8 °F -16.9 °F 0.3 °F 82% 30.29 in 4.0 mi North 23.0 mph 29.9 mph N/A   Haze
3:15 AM 4.1 °F -17.4 °F -0.6 °F 81% 30.32 in 5.0 mi North 21.9 mph 31.1 mph N/A   Haze
3:35 AM 3.7 °F -17.9 °F -1.3 °F 80% 30.32 in 5.0 mi North 21.9 mph 31.1 mph N/A   Haze
3:55 AM 3.4 °F -16.3 °F -1.7 °F 80% 30.35 in 5.0 mi North 17.3 mph 26.5 mph N/A   Haze
4:15 AM 3.2 °F -17.1 °F -1.7 °F 80% 30.35 in 5.0 mi North 18.4 mph 26.5 mph N/A   Haze
4:35 AM 3.0 °F -18.3 °F -1.8 °F 80% 30.37 in 5.0 mi North 20.7 mph 25.3 mph N/A   Haze
4:55 AM 2.7 °F -18.3 °F -2.2 °F 80% 30.38 in 5.0 mi North 19.6 mph 27.6 mph N/A   Haze
5:15 AM 2.7 °F -17.8 °F -2.4 °F 79% 30.39 in 5.0 mi North 18.4 mph 26.5 mph N/A   Haze
5:35 AM 2.3 °F -19.3 °F -2.9 °F 79% 30.41 in 5.0 mi North 20.7 mph 26.5 mph N/A   Haze
5:55 AM 2.1 °F -18.5 °F -3.1 °F 79% 30.40 in 7.0 mi North 18.4 mph 27.6 mph N/A   Scattered Clouds
6:15 AM 1.9 °F -19.2 °F -3.3 °F 79% 30.41 in 7.0 mi North 19.6 mph 27.6 mph N/A   Clear
6:35 AM 1.4 °F -18.8 °F -3.6 °F 79% 30.41 in 7.0 mi North 17.3 mph 25.3 mph N/A   Clear
6:55 AM 1.4 °F -19.4 °F -4.0 °F 78% 30.41 in 7.0 mi North 18.4 mph 26.5 mph N/A   Clear
7:15 AM 0.9 °F -18.9 °F -4.2 °F 79% 30.41 in 7.0 mi North 16.1 mph 24.2 mph N/A   Scattered Clouds
7:35 AM 0.5 °F -20.0 °F -4.2 °F 81% 30.42 in 3.0 mi North 17.3 mph 20.7 mph N/A   Overcast
7:55 AM 0.3 °F -20.2 °F -5.1 °F 78% 30.44 in 7.0 mi North 17.3 mph 26.5 mph N/A   Mostly Cloudy
8:15 AM 0.3 °F -20.2 °F -4.9 °F 79% 30.44 in 5.0 mi North 17.3 mph 21.9 mph N/A   Haze
8:35 AM 0.5 °F -20.6 °F -5.1 °F 77% 30.44 in 5.0 mi North 18.4 mph 24.2 mph N/A   Haze
8:55 AM 1.0 °F -20.9 °F -4.9 °F 76% 30.46 in 5.0 mi North 20.7 mph 26.5 mph N/A   Haze
9:15 AM 1.2 °F -20.7 °F -4.9 °F 75% 30.47 in 5.0 mi North 20.7 mph 25.3 mph N/A   Haze
9:35 AM 1.2 °F -20.2 °F -4.9 °F 75% 30.48 in 5.0 mi North 19.6 mph 25.3 mph N/A   Haze
9:55 AM 1.2 °F -17.8 °F -5.1 °F 75% 30.49 in 7.0 mi North 15.0 mph 25.3 mph N/A   Mostly Cloudy
10:15 AM 2.1 °F -17.3 °F -4.2 °F 75% 30.51 in 5.0 mi North 16.1 mph 23.0 mph N/A   Haze
10:35 AM 1.9 °F -14.7 °F -4.7 °F 74% 30.52 in 10.0 mi North 11.5 mph 17.3 mph N/A   Overcast
10:55 AM 1.9 °F -16.9 °F -4.4 °F 75% 30.50 in 10.0 mi North 15.0 mph 23.0 mph N/A   Scattered Clouds
11:15 AM 2.3 °F -17.1 °F -4.4 °F 74% 30.50 in 10.0 mi North 16.1 mph 21.9 mph N/A   Clear
11:35 AM 2.7 °F -16.0 °F -4.0 °F 74% 30.50 in 10.0 mi NNE 15.0 mph - N/A   Clear
11:55 AM 3.2 °F -15.3 °F -3.8 °F 73% 30.50 in 10.0 mi North 15.0 mph - N/A   Scattered Clouds
12:15 PM 3.6 °F -14.8 °F -3.3 °F 73% 30.49 in 10.0 mi NNE 15.0 mph 20.7 mph N/A   Scattered Clouds
12:35 PM 3.9 °F -14.3 °F -3.3 °F 72% 30.49 in 10.0 mi North 15.0 mph 21.9 mph N/A   Scattered Clouds
12:55 PM 4.1 °F -14.1 °F -2.4 °F 75% 30.48 in 10.0 mi North 15.0 mph 19.6 mph N/A   Mostly Cloudy
1:15 PM 4.8 °F -12.5 °F -2.2 °F 73% 30.47 in 10.0 mi North 13.8 mph 17.3 mph N/A   Scattered Clouds
1:35 PM 4.5 °F -13.0 °F -2.7 °F 72% 30.46 in 10.0 mi North 13.8 mph 20.7 mph N/A   Scattered Clouds
1:55 PM 5.0 °F -13.0 °F -2.0 °F 73% 30.46 in 10.0 mi North 15.0 mph 19.6 mph N/A   Mostly Cloudy
2:15 PM 5.4 °F -12.5 °F -1.7 °F 73% 30.45 in 10.0 mi North 15.0 mph - N/A   Overcast
2:35 PM 5.5 °F -12.3 °F -1.8 °F 72% 30.45 in 10.0 mi North 15.0 mph 20.7 mph N/A   Overcast
2:55 PM 5.9 °F -11.2 °F -1.1 °F 73% 30.44 in 3.0 mi North 13.8 mph 19.6 mph N/A Snow Light Snow
3:15 PM 6.3 °F -12.0 °F -0.6 °F 73% 30.43 in 2.5 mi NNE 16.1 mph 20.7 mph N/A   Haze
3:35 PM 5.5 °F -12.3 °F -1.5 °F 73% 30.43 in 7.0 mi NNE 15.0 mph - N/A   Mostly Cloudy
3:55 PM 5.0 °F -13.6 °F -1.5 °F 75% 30.43 in 2.0 mi North 16.1 mph - N/A Snow Light Snow
4:15 PM 4.8 °F -12.5 °F -1.5 °F 75% 30.43 in 2.5 mi North 13.8 mph 18.4 mph N/A Snow Light Snow
4:35 PM 4.8 °F -11.8 °F -1.5 °F 75% 30.44 in 3.0 mi North 12.7 mph - N/A Snow Light Snow
4:55 PM 4.8 °F -11.8 °F -1.3 °F 76% 30.44 in 2.0 mi North 12.7 mph - N/A Snow Light Snow
5:15 PM 4.6 °F -12.0 °F -1.5 °F 76% 30.45 in 3.0 mi North 12.7 mph - N/A Snow Light Snow
5:35 PM 4.1 °F -12.0 °F -1.5 °F 78% 30.44 in 4.0 mi NNE 11.5 mph - N/A Snow Light Snow
5:55 PM 4.1 °F -12.7 °F -1.3 °F 78% 30.43 in 3.0 mi North 12.7 mph - N/A Snow Light Snow
6:15 PM 4.1 °F -14.7 °F -1.3 °F 78% 30.45 in 4.0 mi North 16.1 mph 20.7 mph N/A Snow Light Snow
6:35 PM 4.1 °F -12.0 °F -1.3 °F 78% 30.43 in 3.0 mi NNE 11.5 mph - N/A Snow Light Snow
6:55 PM 4.1 °F -10.2 °F -1.1 °F 79% 30.46 in 2.0 mi North 9.2 mph - N/A Snow Light Snow
7:15 PM 3.9 °F -10.4 °F -1.3 °F 79% 30.44 in 2.5 mi NNE 9.2 mph 16.1 mph N/A Snow Light Snow
7:35 PM 3.7 °F -12.4 °F -1.3 °F 80% 30.44 in 2.5 mi NNE 11.5 mph - N/A Snow Light Snow
7:55 PM 3.7 °F -11.6 °F -1.3 °F 80% 30.45 in 2.5 mi NNE 10.4 mph - N/A Snow Light Snow
8:15 PM 3.7 °F -13.2 °F -1.3 °F 80% 30.44 in 3.0 mi NNE 12.7 mph - N/A Snow Light Snow
8:35 PM 3.7 °F -12.4 °F -0.8 °F 82% 30.43 in 3.0 mi NNE 11.5 mph - N/A Snow Light Snow
8:55 PM 3.7 °F -10.6 °F -0.9 °F 81% 30.45 in 3.0 mi NNE 9.2 mph - N/A Snow Light Snow
9:15 PM 3.6 °F -12.6 °F -1.3 °F 80% 30.44 in 4.0 mi NE 11.5 mph - N/A Snow Light Snow
9:35 PM 3.2 °F -12.2 °F -1.3 °F 82% 30.44 in 2.5 mi NNE 10.4 mph - N/A Snow Light Snow
9:55 PM 3.6 °F -13.4 °F -0.9 °F 82% 30.45 in 4.0 mi NE 12.7 mph - N/A Snow Light Snow
10:15 PM 3.2 °F -13.9 °F -1.7 °F 80% 30.46 in 3.0 mi NNE 12.7 mph - N/A Snow Light Snow
10:35 PM 3.0 °F -14.1 °F -1.8 °F 80% 30.45 in 2.0 mi NNE 12.7 mph - N/A Snow Light Snow
10:55 PM 2.8 °F -12.7 °F -1.8 °F 81% 30.45 in 1.8 mi NNE 10.4 mph - N/A Snow Light Snow
11:15 PM 2.7 °F -13.8 °F -2.2 °F 80% 30.45 in 1.2 mi NNE 11.5 mph - N/A Snow Light Snow
11:35 PM 2.3 °F -14.2 °F -2.2 °F 81% 30.46 in 1.8 mi NNE 11.5 mph - N/A Snow Light Snow
11:55 PM 2.3 °F -14.2 °F -2.2 °F 81% 30.46 in 1.5 mi NNE 11.5 mph - N/A Snow Light Snow